User: anonymous   Login
Location: Unspecified
(0.0000°N, 0.0000°E)
Time: 03:18:28
(UTC+00:00)
Language:

OBJECT G - Orbit

View from above orbital plane
View from above orbital plane
View from above satellite
View from above satellite

Ground track
Ground track

The orbit is defined by the following mean orbital elements,

1 66299U          26145.55250470 +.00000000 +00000-0 +19113-3 0 00009
2 66299  45.4017 242.4576 0006457 277.4392  82.5761 15.20271544    01
Epoch (UTC): 25 May 2026 13:15:36
Eccentricity: 0.0006457
inclination: 45.4017°
perigee height: 501 km
apogee height: 509 km
right ascension of ascending node: 242.4576°
argument of perigee: 277.4392°
revolutions per day: 15.20271544
mean anomaly at epoch: 82.5761°

The dashed part of the orbit path shows where the satellite is in the earth's shadow,  

DLR